Flag for U.S.A. Weather past 2 weeks in Honolulu, Hawaii, U.S.A.

Now
72 °F

Broken clouds.


Feels Like: 71 °F
Forecast: 70 / 79 °F
Wind: 12 mph from East

Location: Honolulu International Airport

Current Time: Apr 28, 2015 at 8:39:31 AM

Latest Report: Apr 28, 2015 at 7:53 AM


Visibility: 10 mi

Pressure: 30.10 "Hg

Humidity: 84%

Dew point: 67 °F

Location of HonoluluLocation

Historic Weather in Honolulu — Graph

°F

Honolulu temperature yesterday

Maximum temperature yesterday: 78 °F (at 1:53 PM)
Minimum temperature yesterday: 70 °F (at 11:21 PM)
Average temperature yesterday: 73 °F

Past Weeks' High & Low Weather Summary

 TemperatureHumidityPressure
High85 °F (Apr 16, 12:53 PM)100% (Apr 22, 2:53 AM)30.16 "Hg (Apr 22, 2:53 AM)
Low67 °F (Apr 22, 4:53 AM)48% (Apr 13, 1:53 PM)29.93 "Hg (Apr 23, 3:53 PM)
Average76 °F72%30.03 "Hg
* Reported Apr 13 6:53 AM — Apr 28 6:53 AM, Honolulu, Weather by CustomWeather, © 2015

Note: Actual official high and low records may vary slightly from our data, if they occured in-between our weather recording intervals... More about our weather records

Advertising

Honolulu weather history for previous 24 hours

 ConditionsComfort  
Time TempWeatherWind HumidityBarometerVisibility
6:53 AM
Tue, Apr 28
69 °FScattered clouds.9 mph96%30.09 "Hg10 mi
5:53 AM69 °FPassing clouds.9 mph93%30.06 "Hg10 mi
4:53 AM69 °FPartly cloudy.7 mph93%30.06 "Hg10 mi
3:53 AM69 °FPartly cloudy.7 mph96%30.05 "Hg10 mi
2:53 AM69 °FPartly cloudy.8 mph96%30.04 "Hg10 mi
1:53 AM70 °FLight rain. Partly cloudy.6 mph93%30.06 "Hg10 mi
12:53 AM69 °FLight rain. Passing clouds.12 mph96%30.08 "Hg9 mi
11:53 PM
Mon, Apr 27
71 °FPassing clouds.No wind87%30.09 "Hg10 mi
11:21 PM70 °FPassing clouds.5 mph88%30.10 "Hg10 mi
10:53 PM70 °FPassing clouds.9 mph87%30.11 "Hg10 mi
9:53 PM70 °FPassing clouds.8 mph87%30.10 "Hg10 mi
8:53 PM71 °FPassing clouds.9 mph84%30.09 "Hg10 mi
7:53 PM71 °FPassing clouds.9 mph81%30.07 "Hg10 mi
6:53 PM71 °FScattered clouds.17 mph78%30.05 "Hg10 mi
5:53 PM74 °FScattered clouds.18 mph69%30.03 "Hg10 mi
4:53 PM75 °FScattered clouds.20 mph66%30.02 "Hg10 mi
3:53 PM76 °FBroken clouds.15 mph64%30.01 "Hg10 mi
2:53 PM77 °FBroken clouds.21 mph62%30.02 "Hg10 mi
1:53 PM78 °FScattered clouds.20 mph60%30.03 "Hg10 mi
12:53 PM77 °FBroken clouds.24 mph62%30.04 "Hg10 mi
11:53 AM77 °FScattered clouds.20 mph62%30.06 "Hg10 mi
10:53 AM76 °FScattered clouds.18 mph64%30.07 "Hg10 mi
9:53 AM75 °FScattered clouds.18 mph64%30.07 "Hg10 mi
8:53 AM72 °FScattered clouds.15 mph73%30.06 "Hg10 mi
Weather by CustomWeather, © 2015

See weather overviewHow to use our weather pages